Location: *
(52.2090°N, 4.1550°W)
Time: 02:14:19
(UTC+00:00)

SeaSat 1 - Pass Details

Date: 19 July 2019
Orbit: 744 x 748 km, 108.0° (Epoch: 24 August)

Event Time Altitude Azimuth Distance (km) Brightness Sun altitude
Rises 22:47:11 0° 40° (NE) 3,204 6.1 -14.1°
Reaches altitude 10° 22:50:01 10° 57° (ENE) 2,275 5.1 -14.3°
Maximum altitude 22:53:43 21° 106° (ESE) 1,645 3.9 -14.5°
Enters shadow 22:55:12 18° 130° (SE) 1,759 3.9 -14.6°
